Regional Weather Roundup
Issued by NWS

Home | Current Version | Previous Version | Graphics & Text | Print | Product List | Glossary On
Versions: 1 2 3 4 5 6 7 8 9 10 11 12 13 14 15 16 17 18 19 20 21 22 23 24 25 26 27 28 29 30 31 32 33 34 35 36 37 38 39 40 41 42 43 44 45 46 47 48 49 50
000
ASUS44 KMEG 020000
RWRTN
TENNESSEE HOURLY STATE WEATHER ROUNDUP
NATIONAL WEATHER SERVICE MEMPHIS TN
700 PM CDT MON SEP 01 2014

TNZ002-004-019-021-049-052-054-088>092-020100-
WEST TENNESSEE

CITY           SKY/WX    TMP DP  RH WIND       PRES   REMARKS
MEMPHIS INTL   PTCLDY    87  72  60 S10       29.96S HX  93
NWS MEMPHIS      N/A     88 N/A N/A MISG        N/A
JACKSON        CLEAR     83  72  69 S3        29.97S
DYERSBURG      CLEAR     84  66  54 CALM      29.95S
UNION CITY     CLEAR     82  73  74 S6        29.94S
PARIS          CLEAR     81  72  74 SW6       29.98R
LEXINGTON      CLEAR     84  70  61 S5        29.98S
SAVANNAH       CLEAR     84  72  65 S3        30.00S
$$

TNZ008-025-027-028-033-062-065-066-020100-
NORTH MIDDLE TENNESSEE

CITY           SKY/WX    TMP DP  RH WIND       PRES   REMARKS
NASHVILLE      PTCLDY    86  67  52 SW8       29.99S
CLARKSVILLE    PTCLDY    84  71  65 SW5       29.98R
COOKEVILLE     CLEAR     82  73  74 SW5       30.04R
CROSSVILLE     PTCLDY    79  66  64 SW3       30.10R
$$

TNZ061-075-076-078-094-096-097-020100-
SOUTH MIDDLE TENNESSEE

CITY           SKY/WX    TMP DP  RH WIND       PRES   REMARKS
FAYETTEVILLE   CLEAR     84  68  58 SW5       30.04R
TULLAHOMA      CLEAR     82  68  61 CALM      30.06R
WINCHESTER     CLEAR     82  72  69 S3        30.05R
SHELBYVILLE    CLEAR     84  72  65 S7        30.03S
$$

TNZ017-018-042-046-047-020100-
NORTHEAST TENNESSEE

CITY           SKY/WX    TMP DP  RH WIND       PRES   REMARKS
TRI CITIES     PTCLDY    83  64  52 W5        30.08R
ELIZABETHTON   CLEAR     73  68  83 CALM      30.10R
$$

TNZ012-013-036-069-073-074-020100-
CENTRAL EAST TENNESSEE

CITY           SKY/WX    TMP DP  RH WIND       PRES   REMARKS
KNOXVILLE      PTCLDY    82  69  64 SW9       30.04R
OAK RIDGE      PTCLDY    85  71  63 S3        30.06R HX  90
GATLINBURG     CLEAR     84  66  54 SW3       30.05R
$$

TNZ083-085-099-020100-
SOUTHEAST TENNESSEE

CITY           SKY/WX    TMP DP  RH WIND       PRES   REMARKS
CHATTANOOGA    PTCLDY    88  66  48 SW5       30.04S HX  90
$$

SKY/WX REPORTED AS FAIR MEANS FEW OR NO CLOUDS BELOW
12 THOUSAND FEET.



USA.gov is the U.S. government's official web portal to all federal, state and local government web resources and services.